Regional Weather Roundup
Issued by NWS

Home | Current Version | Previous Version | Text Only | Print | Product List | Glossary On
Versions: 1 2 3 4 5 6 7 8 9 10 11 12 13 14 15 16 17 18 19 20 21 22 23 24 25 26 27 28 29 30 31 32 33 34 35 36 37 38 39 40 41 42 43 44 45 46 47 48 49 50
000
ASUS43 KLSX 262207
RWRMO

WEATHER SUMMARY FOR MISSOURI
NATIONAL WEATHER SERVICE SPRINGFIELD MO
400 PM CST MON JAN 26 2015

NOTE: "FAIR" INDICATES FEW OR NO CLOUDS BELOW 12,000 FEET WITH NO
       SIGNIFICANT WEATHER AND/OR OBSTRUCTIONS TO VISIBILITY.
       CURRENT SKY AND/OR WEATHER CONDITIONS ARE NOT AVAILABLE FOR
       CHILLICOTHE AND FARMINGTON.

MOZ001>031-035>038-043-044-053-054-262300-
...NORTHERN AND WESTERN MISSOURI...

CITY           SKY/WX    TMP DP  RH WIND       PRES   REMARKS
KANSAS CTY INT MOSUNNY   60  34  37 NW13      29.91R
KANSAS C DTWN  SUNNY     62  33  33 NW16G25   29.90R
LEE`S SUMMIT   SUNNY     60  34  37 NW16      29.91R
ST JOSEPH      SUNNY     60  33  36 N21       29.93R
CHILLICOTHE      N/A     57  36  45 NW10G20   29.88S
KIRKSVILLE     SUNNY     52  36  54 NW15G23   29.85R

$$
MOZ066>068-077>081-088>096-101>105-262300-
...SOUTHWEST MISSOURI...

CITY           SKY/WX    TMP DP  RH WIND       PRES   REMARKS
SPRINGFIELD    SUNNY     57  33  40 W18G24    29.92F
JOPLIN         SUNNY     59  35  40 W12       29.96S

$$
MOZ032>034-039>042-045>050-055>058-069>072-262300-
...CENTRAL MISSOURI...

CITY           SKY/WX    TMP DP  RH WIND       PRES   REMARKS
COLUMBIA       SUNNY     52  36  54 W21       29.85R
JEFFERSON CITY SUNNY     54  35  48 W21       29.85S
ROLLA          SUNNY     51  34  52 W17       29.84R
SEDALIA        SUNNY     55  37  50 W17G24    29.90R
WHITEMAN AFB   SUNNY     57  35  44 NW10      29.89R
WARRENSBURG    SUNNY     57  34  41 NW9       29.90S
OSAGE BEACH    SUNNY     55  34  44 W13G22    29.88R

$$
MOZ051-052-059>065-262300-
...EAST CENTRAL MISSOURI...

CITY           SKY/WX    TMP DP  RH WIND       PRES   REMARKS
ST LOUIS INTL  PTSUNNY   41  29  62 CALM      29.89R
SPIRIT OF STL  MOSUNNY   45  32  60 CALM      29.88R
ST CHARLES     CLOUDY    37  30  75 E5        29.88S

$$
MOZ072>076-082>087-097>100-106>115-262300-
...SOUTH CENTRAL AND SOUTHEAST MISSOURI...

CITY           SKY/WX    TMP DP  RH WIND       PRES   REMARKS
CAPE GIRARDEAU CLOUDY    39  31  72 S9        29.93F
FARMINGTON     SUNNY     45  30  57 MISG      29.88F
POPLAR BLUFF   PTSUNNY   44  34  67 S7        29.91F
WEST PLAINS    SUNNY     53  30  41 W17G23    29.87F

$$


USA.gov is the U.S. government's official web portal to all federal, state and local government web resources and services.